Year,Month,Day,Hour,Minute,Value (Times are PST for temperature in C)
2017,09,21,00,00,10.30
2017,09,21,00,01,10.20
2017,09,21,00,02,10.20
2017,09,21,00,03,10.20
2017,09,21,00,04,10.20
2017,09,21,00,05,10.20
2017,09,21,00,06,10.20
2017,09,21,00,07,10.20
2017,09,21,00,08,10.20
2017,09,21,00,09,10.20
2017,09,21,00,10,10.20
2017,09,21,00,11,10.20
2017,09,21,00,12,10.20
2017,09,21,00,13,10.20
2017,09,21,00,14,10.20
2017,09,21,00,15,10.20
2017,09,21,00,16,10.10
2017,09,21,00,17,10.10
2017,09,21,00,18,10.10
2017,09,21,00,19,10.10
2017,09,21,00,20,10.10
2017,09,21,00,21,10.10
2017,09,21,00,22,10.10
2017,09,21,00,23,10.10
2017,09,21,00,24,10.10
2017,09,21,00,25,10.00
2017,09,21,00,26,10.00
2017,09,21,00,27,10.00
2017,09,21,00,28,10.00
2017,09,21,00,29,10.00
2017,09,21,00,30,10.00
2017,09,21,00,31,10.00
2017,09,21,00,32,10.00
2017,09,21,00,33,10.00
2017,09,21,00,34,10.00
2017,09,21,00,35,9.90
2017,09,21,00,36,9.90
2017,09,21,00,37,9.90
2017,09,21,00,38,9.90
2017,09,21,00,39,9.90
2017,09,21,00,40,9.90
2017,09,21,00,41,9.90
2017,09,21,00,42,9.90
2017,09,21,00,43,9.90
2017,09,21,00,44,9.90
2017,09,21,00,45,9.80
2017,09,21,00,46,9.80
2017,09,21,00,47,9.80
2017,09,21,00,48,9.80
2017,09,21,00,49,9.80
2017,09,21,00,50,9.70
2017,09,21,00,51,9.70
2017,09,21,00,52,9.70
2017,09,21,00,53,9.70
2017,09,21,00,54,9.70
2017,09,21,00,55,9.60
2017,09,21,00,56,9.60
2017,09,21,00,57,9.60
2017,09,21,00,58,9.60
2017,09,21,00,59,9.60
2017,09,21,01,00,9.60
2017,09,21,01,01,9.60
2017,09,21,01,02,9.60
2017,09,21,01,03,9.60
2017,09,21,01,04,9.50
2017,09,21,01,05,9.50
2017,09,21,01,06,9.50
2017,09,21,01,07,9.50
2017,09,21,01,08,9.50
2017,09,21,01,09,9.40
2017,09,21,01,10,9.40
2017,09,21,01,11,9.40
2017,09,21,01,12,9.40
2017,09,21,01,13,9.40
2017,09,21,01,14,9.30
2017,09,21,01,15,9.30
2017,09,21,01,16,9.30
2017,09,21,01,17,9.30
2017,09,21,01,18,9.30
2017,09,21,01,19,9.30
2017,09,21,01,20,9.30
2017,09,21,01,21,9.30
2017,09,21,01,22,9.30
2017,09,21,01,23,9.30
2017,09,21,01,24,9.30
2017,09,21,01,25,9.20
2017,09,21,01,26,9.20
2017,09,21,01,27,9.20
2017,09,21,01,28,9.20
2017,09,21,01,29,9.20
2017,09,21,01,30,9.20
2017,09,21,01,31,9.20
2017,09,21,01,32,9.20
2017,09,21,01,33,9.20
2017,09,21,01,34,9.20
2017,09,21,01,35,9.10
2017,09,21,01,36,9.10
2017,09,21,01,37,9.10
2017,09,21,01,38,9.10
2017,09,21,01,39,9.10
2017,09,21,01,40,9.10
2017,09,21,01,41,9.10
2017,09,21,01,42,9.10
2017,09,21,01,43,9.10
2017,09,21,01,44,9.10
2017,09,21,01,45,9.10
2017,09,21,01,46,9.10
2017,09,21,01,47,9.10
2017,09,21,01,48,9.10
2017,09,21,01,49,9.00
2017,09,21,01,50,9.00
2017,09,21,01,51,9.00
2017,09,21,01,52,9.00
2017,09,21,01,53,9.00
2017,09,21,01,54,8.90
2017,09,21,01,55,8.90
2017,09,21,01,56,8.90
2017,09,21,01,57,8.90
2017,09,21,01,58,8.90
2017,09,21,01,59,8.90
2017,09,21,02,00,8.90
2017,09,21,02,01,8.90
2017,09,21,02,02,8.90
2017,09,21,02,03,8.90
2017,09,21,02,04,8.90
2017,09,21,02,05,8.80
2017,09,21,02,06,8.80
2017,09,21,02,07,8.80
2017,09,21,02,08,8.80
2017,09,21,02,09,8.80
2017,09,21,02,10,8.80
2017,09,21,02,11,8.80
2017,09,21,02,12,8.70
2017,09,21,02,13,8.70
2017,09,21,02,14,8.70
2017,09,21,02,15,8.70
2017,09,21,02,16,8.70
2017,09,21,02,17,8.70
2017,09,21,02,18,8.70
2017,09,21,02,19,8.70
2017,09,21,02,20,8.70
2017,09,21,02,21,8.60
2017,09,21,02,22,8.60
2017,09,21,02,23,8.60
2017,09,21,02,24,8.60
2017,09,21,02,25,8.60
2017,09,21,02,26,8.60
2017,09,21,02,27,8.60
2017,09,21,02,28,8.60
2017,09,21,02,29,8.60
2017,09,21,02,30,8.60
2017,09,21,02,31,8.60
2017,09,21,02,32,8.60
2017,09,21,02,33,8.50
2017,09,21,02,34,8.50
2017,09,21,02,35,8.50
2017,09,21,02,36,8.50
2017,09,21,02,37,8.50
2017,09,21,02,38,8.50
2017,09,21,02,39,8.40
2017,09,21,02,40,8.40
2017,09,21,02,41,8.40
2017,09,21,02,42,8.40
2017,09,21,02,43,8.40
2017,09,21,02,44,8.40
2017,09,21,02,45,8.40
2017,09,21,02,46,8.40
2017,09,21,02,47,8.40
2017,09,21,02,48,8.40
2017,09,21,02,49,8.40
2017,09,21,02,50,8.40
2017,09,21,02,51,8.40
2017,09,21,02,52,8.40
2017,09,21,02,53,8.40
2017,09,21,02,54,8.40
2017,09,21,02,55,8.40
2017,09,21,02,56,8.40
2017,09,21,02,57,8.40
2017,09,21,02,58,8.40
2017,09,21,02,59,8.40
2017,09,21,03,00,8.40
2017,09,21,03,01,8.40
2017,09,21,03,02,8.40
2017,09,21,03,03,8.30
2017,09,21,03,04,8.30
2017,09,21,03,05,8.30
2017,09,21,03,06,8.30
2017,09,21,03,07,8.30
2017,09,21,03,08,8.30
2017,09,21,03,09,8.30
2017,09,21,03,10,8.30
2017,09,21,03,11,8.20
2017,09,21,03,12,8.20
2017,09,21,03,13,8.20
2017,09,21,03,14,8.20
2017,09,21,03,15,8.20
2017,09,21,03,16,8.20
2017,09,21,03,17,8.20
2017,09,21,03,18,8.20
2017,09,21,03,19,8.20
2017,09,21,03,20,8.20
2017,09,21,03,21,8.10
2017,09,21,03,22,8.10
2017,09,21,03,23,8.10
2017,09,21,03,24,8.10
2017,09,21,03,25,8.10
2017,09,21,03,26,8.10
2017,09,21,03,27,8.10
2017,09,21,03,28,8.10
2017,09,21,03,29,8.10
2017,09,21,03,30,8.10
2017,09,21,03,31,8.10
2017,09,21,03,32,8.10
2017,09,21,03,33,8.10
2017,09,21,03,34,8.10
2017,09,21,03,35,8.10
2017,09,21,03,36,8.10
2017,09,21,03,37,8.20
2017,09,21,03,38,8.20
2017,09,21,03,39,8.20
2017,09,21,03,40,8.20
2017,09,21,03,41,8.20
2017,09,21,03,42,8.20
2017,09,21,03,43,8.20
2017,09,21,03,44,8.20
2017,09,21,03,45,8.10
2017,09,21,03,46,8.10
2017,09,21,03,47,8.10
2017,09,21,03,48,8.10
2017,09,21,03,49,8.10
2017,09,21,03,50,8.10
2017,09,21,03,51,8.10
2017,09,21,03,52,8.20
2017,09,21,03,53,8.20
2017,09,21,03,54,8.20
2017,09,21,03,55,8.20
2017,09,21,03,56,8.20
2017,09,21,03,57,8.20
2017,09,21,03,58,8.10
2017,09,21,03,59,8.10
2017,09,21,04,00,8.10
2017,09,21,04,01,8.10
2017,09,21,04,02,8.10
2017,09,21,04,03,8.10
2017,09,21,04,04,8.10
2017,09,21,04,05,8.10
2017,09,21,04,06,8.10
2017,09,21,04,07,8.10
2017,09,21,04,08,8.10
2017,09,21,04,09,8.10
2017,09,21,04,10,8.10
2017,09,21,04,11,8.00
2017,09,21,04,12,8.00
2017,09,21,04,13,8.00
2017,09,21,04,14,8.00
2017,09,21,04,15,7.90
2017,09,21,04,16,7.90
2017,09,21,04,17,7.90
2017,09,21,04,18,7.90
2017,09,21,04,19,7.90
2017,09,21,04,20,7.90
2017,09,21,04,21,7.90
2017,09,21,04,22,7.90
2017,09,21,04,23,7.90
2017,09,21,04,24,7.90
2017,09,21,04,25,7.90
2017,09,21,04,26,7.90
2017,09,21,04,27,7.90
2017,09,21,04,28,7.80
2017,09,21,04,29,7.80
2017,09,21,04,30,7.80
2017,09,21,04,31,7.80
2017,09,21,04,32,7.80
2017,09,21,04,33,7.80
2017,09,21,04,34,7.80
2017,09,21,04,35,7.80
2017,09,21,04,36,7.80
2017,09,21,04,37,7.80
2017,09,21,04,38,7.80
2017,09,21,04,39,7.80
2017,09,21,04,40,7.80
2017,09,21,04,41,7.80
2017,09,21,04,42,7.80
2017,09,21,04,43,7.80
2017,09,21,04,44,7.80
2017,09,21,04,45,7.80
2017,09,21,04,46,7.80
2017,09,21,04,47,7.80
2017,09,21,04,48,7.80
2017,09,21,04,49,7.80
2017,09,21,04,50,7.80
2017,09,21,04,51,7.70
2017,09,21,04,52,7.70
2017,09,21,04,53,7.70
2017,09,21,04,54,7.70
2017,09,21,04,55,7.70
2017,09,21,04,56,7.70
2017,09,21,04,57,7.70
2017,09,21,04,58,7.70
2017,09,21,04,59,7.60
2017,09,21,05,00,7.60
2017,09,21,05,01,7.60
2017,09,21,05,02,7.60
2017,09,21,05,03,7.60
2017,09,21,05,04,7.60
2017,09,21,05,05,7.60
2017,09,21,05,06,7.60
2017,09,21,05,07,7.60
2017,09,21,05,08,7.60
2017,09,21,05,09,7.60
2017,09,21,05,10,7.60
2017,09,21,05,11,7.60
2017,09,21,05,12,7.60
2017,09,21,05,13,7.60
2017,09,21,05,14,7.60
2017,09,21,05,15,7.60
2017,09,21,05,16,7.60
2017,09,21,05,17,7.50
2017,09,21,05,18,7.60
2017,09,21,05,19,7.50
2017,09,21,05,20,7.50
2017,09,21,05,21,7.50
2017,09,21,05,22,7.50
2017,09,21,05,23,7.50
2017,09,21,05,24,7.50
2017,09,21,05,25,7.50
2017,09,21,05,26,7.50
2017,09,21,05,27,7.50
2017,09,21,05,28,7.50
2017,09,21,05,29,7.60
2017,09,21,05,30,7.60
2017,09,21,05,31,7.60
2017,09,21,05,32,7.50
2017,09,21,05,33,7.60
2017,09,21,05,34,7.60
2017,09,21,05,35,7.50
2017,09,21,05,36,7.50
2017,09,21,05,37,7.50
2017,09,21,05,38,7.50
2017,09,21,05,39,7.50
2017,09,21,05,40,7.50
2017,09,21,05,41,7.50
2017,09,21,05,42,7.50
2017,09,21,05,43,7.60
2017,09,21,05,44,7.60
2017,09,21,05,45,7.60
2017,09,21,05,46,7.50
2017,09,21,05,47,7.60
2017,09,21,05,48,7.60
2017,09,21,05,49,7.60
2017,09,21,05,50,7.60
2017,09,21,05,51,7.60
2017,09,21,05,52,7.60
2017,09,21,05,53,7.60
2017,09,21,05,54,7.60
2017,09,21,05,55,7.60
2017,09,21,05,56,7.50
2017,09,21,05,57,7.50
2017,09,21,05,58,7.50
2017,09,21,05,59,7.50
2017,09,21,06,00,7.50
2017,09,21,06,01,7.50
2017,09,21,06,02,7.60
2017,09,21,06,03,7.60
2017,09,21,06,04,7.60
2017,09,21,06,05,7.60
2017,09,21,06,06,7.60
2017,09,21,06,07,7.60
2017,09,21,06,08,7.60
2017,09,21,06,09,7.60
2017,09,21,06,10,7.60
2017,09,21,06,11,7.60
2017,09,21,06,12,7.60
2017,09,21,06,13,7.60
2017,09,21,06,14,7.60
2017,09,21,06,15,7.60
2017,09,21,06,16,7.60
2017,09,21,06,17,7.60
2017,09,21,06,18,7.60
2017,09,21,06,19,7.60
2017,09,21,06,20,7.60
2017,09,21,06,21,7.60
2017,09,21,06,22,7.60
2017,09,21,06,23,7.60
2017,09,21,06,24,7.60
2017,09,21,06,25,7.60
2017,09,21,06,26,7.60
2017,09,21,06,27,7.60
2017,09,21,06,28,7.60
2017,09,21,06,29,7.60
2017,09,21,06,30,7.60
2017,09,21,06,31,7.60
2017,09,21,06,32,7.60
2017,09,21,06,33,7.60
2017,09,21,06,34,7.60
2017,09,21,06,35,7.60
2017,09,21,06,36,7.60
2017,09,21,06,37,7.60
2017,09,21,06,38,7.50
2017,09,21,06,39,7.50
2017,09,21,06,40,7.50
2017,09,21,06,41,7.50
2017,09,21,06,42,7.50
2017,09,21,06,43,7.50
2017,09,21,06,44,7.50
2017,09,21,06,45,7.40
2017,09,21,06,46,7.40
2017,09,21,06,47,7.40
2017,09,21,06,48,7.40
2017,09,21,06,49,7.40
2017,09,21,06,50,7.40
2017,09,21,06,51,7.40
2017,09,21,06,52,7.40
2017,09,21,06,53,7.40
2017,09,21,06,54,7.40
2017,09,21,06,55,7.40
2017,09,21,06,56,7.40
2017,09,21,06,57,7.40
2017,09,21,06,58,7.40
2017,09,21,06,59,7.40
2017,09,21,07,00,7.40
2017,09,21,07,01,7.40
2017,09,21,07,02,7.40
2017,09,21,07,03,7.40
2017,09,21,07,04,7.40
2017,09,21,07,05,7.40
2017,09,21,07,06,7.40
2017,09,21,07,07,7.40
2017,09,21,07,08,7.40
2017,09,21,07,09,7.40
2017,09,21,07,10,7.40
2017,09,21,07,11,7.40
2017,09,21,07,12,7.40
2017,09,21,07,13,7.40
2017,09,21,07,14,7.40
2017,09,21,07,15,7.40
2017,09,21,07,16,7.40
2017,09,21,07,17,7.40
2017,09,21,07,18,7.40
2017,09,21,07,19,7.40
2017,09,21,07,20,7.40
2017,09,21,07,21,7.40
2017,09,21,07,22,7.40
2017,09,21,07,23,7.40
2017,09,21,07,24,7.40
2017,09,21,07,25,7.40
2017,09,21,07,26,7.40
2017,09,21,07,27,7.40
2017,09,21,07,28,7.40
2017,09,21,07,29,7.40
2017,09,21,07,30,7.40
2017,09,21,07,31,7.40
2017,09,21,07,32,7.50
2017,09,21,07,33,7.50
2017,09,21,07,34,7.50
2017,09,21,07,35,7.50
2017,09,21,07,36,7.50
2017,09,21,07,37,7.50
2017,09,21,07,38,7.50
2017,09,21,07,39,7.50
2017,09,21,07,40,7.50
2017,09,21,07,41,7.50
2017,09,21,07,42,7.50
2017,09,21,07,43,7.50
2017,09,21,07,44,7.50
2017,09,21,07,45,7.50
2017,09,21,07,46,7.50
2017,09,21,07,47,7.50
2017,09,21,07,48,7.50
2017,09,21,07,49,7.50
2017,09,21,07,50,7.50
2017,09,21,07,51,7.50
2017,09,21,07,52,7.60
2017,09,21,07,53,7.60
2017,09,21,07,54,7.60
2017,09,21,07,55,7.60
2017,09,21,07,56,7.60
2017,09,21,07,57,7.60
2017,09,21,07,58,7.60
2017,09,21,07,59,7.60
2017,09,21,08,00,7.60
2017,09,21,08,01,7.60
2017,09,21,08,02,7.60
2017,09,21,08,03,7.70
2017,09,21,08,04,7.70
2017,09,21,08,05,7.70
2017,09,21,08,06,7.70
2017,09,21,08,07,7.80
2017,09,21,08,08,7.80
2017,09,21,08,09,7.80
2017,09,21,08,10,7.80
2017,09,21,08,11,7.90
2017,09,21,08,12,7.90
2017,09,21,08,13,8.00
2017,09,21,08,14,8.00
2017,09,21,08,15,8.10
2017,09,21,08,16,8.10
2017,09,21,08,17,8.20
2017,09,21,08,18,8.30
2017,09,21,08,19,8.30
2017,09,21,08,20,8.40
2017,09,21,08,21,8.40
2017,09,21,08,22,8.50
2017,09,21,08,23,8.50
2017,09,21,08,24,8.60
2017,09,21,08,25,8.60
2017,09,21,08,26,8.60
2017,09,21,08,27,8.70
2017,09,21,08,28,8.70
2017,09,21,08,29,8.70
2017,09,21,08,30,8.70
2017,09,21,08,31,8.70
2017,09,21,08,32,8.80
2017,09,21,08,33,8.80
2017,09,21,08,34,8.80
2017,09,21,08,35,8.80
2017,09,21,08,36,8.90
2017,09,21,08,37,8.90
2017,09,21,08,38,8.90
2017,09,21,08,39,8.90
2017,09,21,08,40,9.00
2017,09,21,08,41,9.00
2017,09,21,08,42,9.10
2017,09,21,08,43,9.10
2017,09,21,08,44,9.10
2017,09,21,08,45,9.10
2017,09,21,08,46,9.10
2017,09,21,08,47,9.10
2017,09,21,08,48,9.20
2017,09,21,08,49,9.20
2017,09,21,08,50,9.20
2017,09,21,08,51,9.20
2017,09,21,08,52,9.20
2017,09,21,08,53,9.20
2017,09,21,08,54,9.30
2017,09,21,08,55,9.30
2017,09,21,08,56,9.30
2017,09,21,08,57,9.30
2017,09,21,08,58,9.30
2017,09,21,08,59,9.30
2017,09,21,09,00,9.30
2017,09,21,09,01,9.40
2017,09,21,09,02,9.40
2017,09,21,09,03,9.40
2017,09,21,09,04,9.40
2017,09,21,09,05,9.40
2017,09,21,09,06,9.40
2017,09,21,09,07,9.50
2017,09,21,09,08,9.50
2017,09,21,09,09,9.50
2017,09,21,09,10,9.50
2017,09,21,09,11,9.50
2017,09,21,09,12,9.60
2017,09,21,09,13,9.60
2017,09,21,09,14,9.60
2017,09,21,09,15,9.60
2017,09,21,09,16,9.60
2017,09,21,09,17,9.60
2017,09,21,09,18,9.60
2017,09,21,09,19,9.60
2017,09,21,09,20,9.70
2017,09,21,09,21,9.70
2017,09,21,09,22,9.70
2017,09,21,09,23,9.70
2017,09,21,09,24,9.70
2017,09,21,09,25,9.70
2017,09,21,09,26,9.80
2017,09,21,09,27,9.80
2017,09,21,09,28,9.80
2017,09,21,09,29,9.80
2017,09,21,09,30,9.90
2017,09,21,09,31,9.90
2017,09,21,09,32,9.90
2017,09,21,09,33,10.00
2017,09,21,09,34,10.00
2017,09,21,09,35,10.10
2017,09,21,09,36,10.10
2017,09,21,09,37,10.20
2017,09,21,09,38,10.30
2017,09,21,09,39,10.30
2017,09,21,09,40,10.40
2017,09,21,09,41,10.50
2017,09,21,09,42,10.60
2017,09,21,09,43,10.60
2017,09,21,09,44,10.70
2017,09,21,09,45,10.80
2017,09,21,09,46,10.90
2017,09,21,09,47,11.00
2017,09,21,09,48,11.10
2017,09,21,09,49,11.20
2017,09,21,09,50,11.40
2017,09,21,09,51,11.60
2017,09,21,09,52,11.70
2017,09,21,09,53,11.80
2017,09,21,09,54,12.00
2017,09,21,09,55,12.10
2017,09,21,09,56,12.20
2017,09,21,09,57,12.30
2017,09,21,09,58,12.40
2017,09,21,09,59,12.50
2017,09,21,10,00,12.70
2017,09,21,10,01,12.80
2017,09,21,10,02,12.80
2017,09,21,10,03,12.90
2017,09,21,10,04,13.00
2017,09,21,10,05,13.10
2017,09,21,10,06,13.20
2017,09,21,10,07,13.30
2017,09,21,10,08,13.40
2017,09,21,10,09,13.50
2017,09,21,10,10,13.60
2017,09,21,10,11,13.70
2017,09,21,10,12,13.80
2017,09,21,10,13,13.90
2017,09,21,10,14,13.90
2017,09,21,10,15,14.00
2017,09,21,10,16,14.10
2017,09,21,10,17,14.20
2017,09,21,10,18,14.20
2017,09,21,10,19,14.30
2017,09,21,10,20,14.30
2017,09,21,10,21,14.30
2017,09,21,10,22,14.30
2017,09,21,10,23,14.30
2017,09,21,10,24,14.40
2017,09,21,10,25,14.50
2017,09,21,10,26,14.50
2017,09,21,10,27,14.60
2017,09,21,10,28,14.60
2017,09,21,10,29,14.70
2017,09,21,10,30,14.70
2017,09,21,10,31,14.80
2017,09,21,10,32,14.80
2017,09,21,10,33,14.80
2017,09,21,10,34,14.80
2017,09,21,10,35,14.70
2017,09,21,10,36,14.70
2017,09,21,10,37,14.70
2017,09,21,10,38,14.70
2017,09,21,10,39,14.70
2017,09,21,10,40,14.70
2017,09,21,10,41,14.70
2017,09,21,10,42,14.70
2017,09,21,10,43,14.70
2017,09,21,10,44,14.80
2017,09,21,10,45,14.80
2017,09,21,10,46,14.80
2017,09,21,10,47,14.90
2017,09,21,10,48,14.90
2017,09,21,10,49,15.00
2017,09,21,10,50,15.00
2017,09,21,10,51,15.10
2017,09,21,10,52,15.10
2017,09,21,10,53,15.20
2017,09,21,10,54,15.20
2017,09,21,10,55,15.20
2017,09,21,10,56,15.20
2017,09,21,10,57,15.20
2017,09,21,10,58,15.20
2017,09,21,10,59,15.20
2017,09,21,11,00,15.20
2017,09,21,11,01,15.10
2017,09,21,11,02,15.10
2017,09,21,11,03,15.10
2017,09,21,11,04,15.10
2017,09,21,11,05,15.20
2017,09,21,11,06,15.20
2017,09,21,11,07,15.20
2017,09,21,11,08,15.20
2017,09,21,11,09,15.30
2017,09,21,11,10,15.30
2017,09,21,11,11,15.30
2017,09,21,11,12,15.30
2017,09,21,11,13,15.30
2017,09,21,11,14,15.30
2017,09,21,11,15,15.30
2017,09,21,11,16,15.30
2017,09,21,11,17,15.30
2017,09,21,11,18,15.30
2017,09,21,11,19,15.30
2017,09,21,11,20,15.30
2017,09,21,11,21,15.20
2017,09,21,11,22,15.30
2017,09,21,11,23,15.30
2017,09,21,11,24,15.20
2017,09,21,11,25,15.20
2017,09,21,11,26,15.20
2017,09,21,11,27,15.20
2017,09,21,11,28,15.20
2017,09,21,11,29,15.20
2017,09,21,11,30,15.20
2017,09,21,11,31,15.20
2017,09,21,11,32,15.20
2017,09,21,11,33,15.20
2017,09,21,11,34,15.20
2017,09,21,11,35,15.20
2017,09,21,11,36,15.20
2017,09,21,11,37,15.20
2017,09,21,11,38,15.20
2017,09,21,11,39,15.20
2017,09,21,11,40,15.20
2017,09,21,11,41,15.20
2017,09,21,11,42,15.30
2017,09,21,11,43,15.30
2017,09,21,11,44,15.40
2017,09,21,11,45,15.40
2017,09,21,11,46,15.40
2017,09,21,11,47,15.40
2017,09,21,11,48,15.40
2017,09,21,11,49,15.50
2017,09,21,11,50,15.50
2017,09,21,11,51,15.50
2017,09,21,11,52,15.50
2017,09,21,11,53,15.50
2017,09,21,11,54,15.50
2017,09,21,11,55,15.60
2017,09,21,11,56,15.60
2017,09,21,11,57,15.60
2017,09,21,11,58,15.60
2017,09,21,11,59,15.60
2017,09,21,12,00,15.60
2017,09,21,12,01,15.70
2017,09,21,12,02,15.70
2017,09,21,12,03,15.80
2017,09,21,12,04,15.80
2017,09,21,12,05,16.00
2017,09,21,12,06,16.00
2017,09,21,12,07,16.00
2017,09,21,12,08,16.00
2017,09,21,12,09,15.90
2017,09,21,12,10,15.90
2017,09,21,12,11,15.80
2017,09,21,12,12,15.80
2017,09,21,12,13,15.80
2017,09,21,12,14,15.80
2017,09,21,12,15,15.80
2017,09,21,12,16,15.90
2017,09,21,12,17,16.00
2017,09,21,12,18,16.00
2017,09,21,12,19,16.20
2017,09,21,12,20,16.30
2017,09,21,12,21,16.30
2017,09,21,12,22,16.30
2017,09,21,12,23,16.40
2017,09,21,12,24,16.40
2017,09,21,12,25,16.50
2017,09,21,12,26,16.50
2017,09,21,12,27,16.60
2017,09,21,12,28,16.60
2017,09,21,12,29,16.60
2017,09,21,12,30,16.60
2017,09,21,12,31,16.60
2017,09,21,12,32,16.60
2017,09,21,12,33,16.60
2017,09,21,12,34,16.60
2017,09,21,12,35,16.60
2017,09,21,12,36,16.60
2017,09,21,12,37,16.50
2017,09,21,12,38,16.50
2017,09,21,12,39,16.50
2017,09,21,12,40,16.50
2017,09,21,12,41,16.50
2017,09,21,12,42,16.60
2017,09,21,12,43,16.60
2017,09,21,12,44,16.60
2017,09,21,12,45,16.60
2017,09,21,12,46,16.70
2017,09,21,12,47,16.70
2017,09,21,12,48,16.80
2017,09,21,12,49,16.80
2017,09,21,12,50,16.90
2017,09,21,12,51,16.90
2017,09,21,12,52,17.00
2017,09,21,12,53,17.10
2017,09,21,12,54,17.20
2017,09,21,12,55,17.20
2017,09,21,12,56,17.30
2017,09,21,12,57,17.30
2017,09,21,12,58,17.30
2017,09,21,12,59,17.40
2017,09,21,13,00,17.40
2017,09,21,13,01,17.50
2017,09,21,13,02,17.50
2017,09,21,13,03,17.60
2017,09,21,13,04,17.70
2017,09,21,13,05,17.60
2017,09,21,13,06,17.60
2017,09,21,13,07,17.60
2017,09,21,13,08,17.50
2017,09,21,13,09,17.50
2017,09,21,13,10,17.40
2017,09,21,13,11,17.40
2017,09,21,13,12,17.40
2017,09,21,13,13,17.40
2017,09,21,13,14,17.40
2017,09,21,13,15,17.40
2017,09,21,13,16,17.40
2017,09,21,13,17,17.50
2017,09,21,13,18,17.50
2017,09,21,13,19,17.50
2017,09,21,13,20,17.60
2017,09,21,13,21,17.50
2017,09,21,13,22,17.50
2017,09,21,13,23,17.40
2017,09,21,13,24,17.40
2017,09,21,13,25,17.30
2017,09,21,13,26,17.30
2017,09,21,13,27,17.20
2017,09,21,13,28,17.20
2017,09,21,13,29,17.20
2017,09,21,13,30,17.20
2017,09,21,13,31,17.30
2017,09,21,13,32,17.30
2017,09,21,13,33,17.40
2017,09,21,13,34,17.50
2017,09,21,13,35,17.50
2017,09,21,13,36,17.50
2017,09,21,13,37,17.60
2017,09,21,13,38,17.60
2017,09,21,13,39,17.60
2017,09,21,13,40,17.60
2017,09,21,13,41,17.50
2017,09,21,13,42,17.40
2017,09,21,13,43,17.40
2017,09,21,13,44,17.30
2017,09,21,13,45,17.40
2017,09,21,13,46,17.40
2017,09,21,13,47,17.50
2017,09,21,13,48,17.50
2017,09,21,13,49,17.60
2017,09,21,13,50,17.70
2017,09,21,13,51,17.80
2017,09,21,13,52,17.80
2017,09,21,13,53,17.80
2017,09,21,13,54,17.80
2017,09,21,13,55,17.70
2017,09,21,13,56,17.70
2017,09,21,13,57,17.70
2017,09,21,13,58,17.70
2017,09,21,13,59,17.70
2017,09,21,14,00,17.70
2017,09,21,14,01,17.70
2017,09,21,14,02,17.70
2017,09,21,14,03,17.70
2017,09,21,14,04,17.70
2017,09,21,14,05,17.70
2017,09,21,14,06,17.80
2017,09,21,14,07,17.90
2017,09,21,14,08,18.00
2017,09,21,14,09,18.10
2017,09,21,14,10,18.10
2017,09,21,14,11,18.10
2017,09,21,14,12,18.10
2017,09,21,14,13,18.10
2017,09,21,14,14,18.10
2017,09,21,14,15,18.10
2017,09,21,14,16,18.10
2017,09,21,14,17,18.10
2017,09,21,14,18,18.10
2017,09,21,14,19,18.10
2017,09,21,14,20,18.10
2017,09,21,14,21,18.10
2017,09,21,14,22,18.10
2017,09,21,14,23,18.10
2017,09,21,14,24,18.10
2017,09,21,14,25,18.10
2017,09,21,14,26,18.10
2017,09,21,14,27,18.10
2017,09,21,14,28,18.10
2017,09,21,14,29,18.10
2017,09,21,14,30,18.20
2017,09,21,14,31,18.20
2017,09,21,14,32,18.20
2017,09,21,14,33,18.30
2017,09,21,14,34,18.30
2017,09,21,14,35,18.30
2017,09,21,14,36,18.30
2017,09,21,14,37,18.30
2017,09,21,14,38,18.30
2017,09,21,14,39,18.30
2017,09,21,14,40,18.30
2017,09,21,14,41,18.30
2017,09,21,14,42,18.30
2017,09,21,14,43,18.30
2017,09,21,14,44,18.40
2017,09,21,14,45,18.40
2017,09,21,14,46,18.50
2017,09,21,14,47,18.50
2017,09,21,14,48,18.50
2017,09,21,14,49,18.50
2017,09,21,14,50,18.50
2017,09,21,14,51,18.50
2017,09,21,14,52,18.50
2017,09,21,14,53,18.50
2017,09,21,14,54,18.50
2017,09,21,14,55,18.60
2017,09,21,14,56,18.50
2017,09,21,14,57,18.50
2017,09,21,14,58,18.50
2017,09,21,14,59,18.50
2017,09,21,15,00,18.50
2017,09,21,15,01,18.50
2017,09,21,15,02,18.40
2017,09,21,15,03,18.40
2017,09,21,15,04,18.50
2017,09,21,15,05,18.40
2017,09,21,15,06,18.50
2017,09,21,15,07,18.50
2017,09,21,15,08,18.40
2017,09,21,15,09,18.40
2017,09,21,15,10,18.40
2017,09,21,15,11,18.30
2017,09,21,15,12,18.30
2017,09,21,15,13,18.30
2017,09,21,15,14,18.20
2017,09,21,15,15,18.20
2017,09,21,15,16,18.20
2017,09,21,15,17,18.10
2017,09,21,15,18,18.10
2017,09,21,15,19,18.10
2017,09,21,15,20,18.10
2017,09,21,15,21,18.10
2017,09,21,15,22,18.10
2017,09,21,15,23,18.10
2017,09,21,15,24,18.10
2017,09,21,15,25,18.10
2017,09,21,15,26,18.10
2017,09,21,15,27,18.10
2017,09,21,15,28,18.20
2017,09,21,15,29,18.20
2017,09,21,15,30,18.20
2017,09,21,15,31,18.20
2017,09,21,15,32,18.20
2017,09,21,15,33,18.20
2017,09,21,15,34,18.20
2017,09,21,15,35,18.10
2017,09,21,15,36,18.10
2017,09,21,15,37,18.10
2017,09,21,15,38,18.10
2017,09,21,15,39,18.10
2017,09,21,15,40,18.10
2017,09,21,15,41,18.10
2017,09,21,15,42,18.10
2017,09,21,15,43,18.10
2017,09,21,15,44,18.10
2017,09,21,15,45,18.10
2017,09,21,15,46,18.10
2017,09,21,15,47,18.10
2017,09,21,15,48,18.00
2017,09,21,15,49,18.00
2017,09,21,15,50,18.00
2017,09,21,15,51,18.00
2017,09,21,15,52,18.10
2017,09,21,15,53,18.00
2017,09,21,15,54,18.00
2017,09,21,15,55,18.00
2017,09,21,15,56,18.00
2017,09,21,15,57,17.90
2017,09,21,15,58,18.00
2017,09,21,15,59,18.00
2017,09,21,16,00,18.00
2017,09,21,16,01,18.10
2017,09,21,16,02,18.10
2017,09,21,16,03,18.10
2017,09,21,16,04,18.20
2017,09,21,16,05,18.20
2017,09,21,16,06,18.20
2017,09,21,16,07,18.20
2017,09,21,16,08,18.20
2017,09,21,16,09,18.20
2017,09,21,16,10,18.20
2017,09,21,16,11,18.20
2017,09,21,16,12,18.20
2017,09,21,16,13,18.20
2017,09,21,16,14,18.30
2017,09,21,16,15,18.30
2017,09,21,16,16,18.30
2017,09,21,16,17,18.30
2017,09,21,16,18,18.30
2017,09,21,16,19,18.30
2017,09,21,16,20,18.30
2017,09,21,16,21,18.30
2017,09,21,16,22,18.30
2017,09,21,16,23,18.30
2017,09,21,16,24,18.40
2017,09,21,16,25,18.40
2017,09,21,16,26,18.50
2017,09,21,16,27,18.50
2017,09,21,16,28,18.60
2017,09,21,16,29,18.60
2017,09,21,16,30,18.70
2017,09,21,16,31,18.70
2017,09,21,16,32,18.70
2017,09,21,16,33,18.70
2017,09,21,16,34,18.80
2017,09,21,16,35,18.80
2017,09,21,16,36,18.80
2017,09,21,16,37,18.90
2017,09,21,16,38,18.90
2017,09,21,16,39,19.00
2017,09,21,16,40,19.00
2017,09,21,16,41,19.10
2017,09,21,16,42,19.10
2017,09,21,16,43,19.10
2017,09,21,16,44,19.10
2017,09,21,16,45,19.10
2017,09,21,16,46,19.10
2017,09,21,16,47,19.10
2017,09,21,16,48,19.00
2017,09,21,16,49,19.00
2017,09,21,16,50,18.90
2017,09,21,16,51,18.90
2017,09,21,16,52,18.80
2017,09,21,16,53,18.80
2017,09,21,16,54,18.70
2017,09,21,16,55,18.70
2017,09,21,16,56,18.60
2017,09,21,16,57,18.60
2017,09,21,16,58,18.60
2017,09,21,16,59,18.60
2017,09,21,17,00,18.60
2017,09,21,17,01,18.60
2017,09,21,17,02,18.60
2017,09,21,17,03,18.50
2017,09,21,17,04,18.50
2017,09,21,17,05,18.50
2017,09,21,17,06,18.40
2017,09,21,17,07,18.40
2017,09,21,17,08,18.40
2017,09,21,17,09,18.40
2017,09,21,17,10,18.40
2017,09,21,17,11,18.30
2017,09,21,17,12,18.30
2017,09,21,17,13,18.30
2017,09,21,17,14,18.30
2017,09,21,17,15,18.30
2017,09,21,17,16,18.30
2017,09,21,17,17,18.30
2017,09,21,17,18,18.30
2017,09,21,17,19,18.30
2017,09,21,17,20,18.20
2017,09,21,17,21,18.20
2017,09,21,17,22,18.20
2017,09,21,17,23,18.20
2017,09,21,17,24,18.10
2017,09,21,17,25,18.10
2017,09,21,17,26,18.10
2017,09,21,17,27,18.10
2017,09,21,17,28,18.10
2017,09,21,17,29,18.10
2017,09,21,17,30,18.10
2017,09,21,17,31,18.10
2017,09,21,17,32,18.10
2017,09,21,17,33,18.10
2017,09,21,17,34,18.10
2017,09,21,17,35,18.10
2017,09,21,17,36,18.10
2017,09,21,17,37,18.00
2017,09,21,17,38,18.00
2017,09,21,17,39,18.00
2017,09,21,17,40,18.00
2017,09,21,17,41,18.00
2017,09,21,17,42,18.00